Location: Gisborne
(38.6530°S, 178.0040°E)
Time: 09:52:26
(UTC+13:00)

Cosmos 2227 Rocket - Pass Details

Date: 24 January 2019
Orbit: 837 x 847 km, 71.0° (Epoch: 19 February)

Event Time Altitude Azimuth Distance (km) Brightness Sun altitude
Rises 20:48:20 0° 214° (SSW) 3,422 6.6 -4.1°
Reaches altitude 10° 20:51:02 10° 223° (SW) 2,479 6.2 -4.6°
Maximum altitude 20:55:56 31° 283° (WNW) 1,453 4.1 -5.4°
Drops below altitude 10° 21:00:48 10° 343° (NNW) 2,453 4.5 -6.2°
Sets 21:03:29 0° 353° (N) 3,379 5.1 -6.7°
